Time,TemperatureF,DewpointF,PressureIn,WindDirection,WindDirectionDegrees,WindSpeedMPH,WindSpeedGustMPH,Humidity,HourlyPrecipIn,Conditions,Clouds,dailyrainin,SoftwareType,DateUTC
2013-02-16 00:00:00,1.2,-7.8,28.94,West,270,3.1,4.3,65,0.00,,,0.00,VWS V14.01,2013-02-16 06:00:00,
2013-02-16 00:05:00,2.7,-6.4,28.94,NW,315,3.4,4.0,65,0.00,,,0.00,VWS V14.01,2013-02-16 06:05:00,
2013-02-16 00:10:00,1.4,-7.6,28.94,NNW,338,3.1,4.0,65,0.00,,,0.00,VWS V14.01,2013-02-16 06:10:00,
2013-02-16 00:15:00,2.8,-6.2,28.94,NW,315,4.3,5.4,65,0.00,,,0.00,VWS V14.01,2013-02-16 06:15:00,
2013-02-16 00:20:00,2.7,-6.4,28.94,WNW,292,4.0,4.3,65,0.00,,,0.00,VWS V14.01,2013-02-16 06:20:00,
2013-02-16 00:25:00,1.2,-7.8,28.94,NNE,22,2.7,4.5,65,0.00,,,0.00,VWS V14.01,2013-02-16 06:25:00,
2013-02-16 00:30:00,2.3,-6.8,28.94,WNW,292,2.7,4.0,65,0.00,,,0.00,VWS V14.01,2013-02-16 06:30:00,
2013-02-16 00:35:00,0.9,-8.1,28.91,WNW,292,3.1,5.4,65,0.00,,,0.00,VWS V14.01,2013-02-16 06:35:00,
2013-02-16 00:40:00,1.9,-7.1,28.94,NW,315,2.5,3.8,65,0.00,,,0.00,VWS V14.01,2013-02-16 06:40:00,
2013-02-16 00:45:00,0.7,-8.3,28.91,WNW,292,3.1,4.3,65,0.00,,,0.00,VWS V14.01,2013-02-16 06:45:00,
2013-02-16 00:50:00,1.4,-7.6,28.94,WNW,292,3.8,4.3,65,0.00,,,0.00,VWS V14.01,2013-02-16 06:50:00,
2013-02-16 00:55:00,1.4,-7.6,28.94,WNW,292,3.6,4.3,65,0.00,,,0.00,VWS V14.01,2013-02-16 06:55:00,
2013-02-16 01:00:00,0.5,-8.5,28.91,WNW,292,3.4,4.3,65,0.00,,,0.00,VWS V14.01,2013-02-16 07:00:00,
2013-02-16 01:05:00,1.4,-7.6,28.94,WNW,292,4.0,4.3,65,0.00,,,0.00,VWS V14.01,2013-02-16 07:05:00,
2013-02-16 01:10:00,1.4,-7.6,28.94,NNW,338,3.1,4.0,65,0.00,,,0.00,VWS V14.01,2013-02-16 07:10:00,
2013-02-16 01:15:00,1.2,-7.8,28.94,NNW,338,1.6,4.3,65,0.00,,,0.00,VWS V14.01,2013-02-16 07:15:00,
2013-02-16 01:20:00,0.3,-8.6,28.91,WNW,292,3.4,3.8,65,0.00,,,0.00,VWS V14.01,2013-02-16 07:20:00,
2013-02-16 01:25:00,1.2,-7.8,28.94,NNE,22,2.7,4.5,65,0.00,,,0.00,VWS V14.01,2013-02-16 07:25:00,
2013-02-16 01:30:00,0.1,-8.8,28.91,WNW,292,3.1,4.0,65,0.00,,,0.00,VWS V14.01,2013-02-16 07:30:00,
2013-02-16 01:35:00,0.9,-8.1,28.91,WNW,292,3.1,5.4,65,0.00,,,0.00,VWS V14.01,2013-02-16 07:35:00,
2013-02-16 01:40:00,0.7,-8.3,28.91,WNW,292,3.4,3.4,65,0.00,,,0.00,VWS V14.01,2013-02-16 07:40:00,
2013-02-16 01:45:00,0.1,-8.8,28.91,WNW,292,2.7,4.0,65,0.00,,,0.00,VWS V14.01,2013-02-16 07:45:00,
2013-02-16 01:50:00,0.7,-8.3,28.91,WNW,292,3.1,4.0,65,0.00,,,0.00,VWS V14.01,2013-02-16 07:50:00,
2013-02-16 01:55:00,0.0,-9.0,28.91,WNW,292,3.1,3.4,65,0.00,,,0.00,VWS V14.01,2013-02-16 07:55:00,
2013-02-16 02:00:00,0.5,-8.5,28.91,WNW,292,3.4,4.3,65,0.00,,,0.00,VWS V14.01,2013-02-16 08:00:00,
2013-02-16 02:05:00,0.5,-8.5,28.91,WNW,292,3.1,3.8,65,0.00,,,0.00,VWS V14.01,2013-02-16 08:05:00,
2013-02-16 02:10:00,0.3,-8.6,28.91,WNW,292,3.1,3.8,65,0.00,,,0.00,VWS V14.01,2013-02-16 08:10:00,
2013-02-16 02:15:00,0.3,-8.6,28.91,WNW,292,2.7,3.1,65,0.00,,,0.00,VWS V14.01,2013-02-16 08:15:00,
2013-02-16 02:20:00,0.0,-9.0,28.88,WNW,292,3.1,3.4,65,0.00,,,0.00,VWS V14.01,2013-02-16 08:20:00,
2013-02-16 02:25:00,0.1,-8.8,28.91,WNW,292,4.0,4.3,65,0.00,,,0.00,VWS V14.01,2013-02-16 08:25:00,
2013-02-16 02:30:00,-0.2,-9.2,28.88,WNW,292,3.1,4.0,65,0.00,,,0.00,VWS V14.01,2013-02-16 08:30:00,
2013-02-16 02:35:00,0.1,-8.8,28.91,WNW,292,4.0,4.9,65,0.00,,,0.00,VWS V14.01,2013-02-16 08:35:00,
2013-02-16 02:40:00,0.3,-8.6,28.91,WNW,292,3.4,4.0,65,0.00,,,0.00,VWS V14.01,2013-02-16 08:40:00,
2013-02-16 02:45:00,-0.2,-9.2,28.88,WNW,292,1.6,2.7,65,0.00,,,0.00,VWS V14.01,2013-02-16 08:45:00,
2013-02-16 02:50:00,0.0,-9.0,28.91,WNW,292,3.1,3.4,65,0.00,,,0.00,VWS V14.01,2013-02-16 08:50:00,
2013-02-16 02:55:00,-0.4,-9.3,28.88,WSW,248,2.5,2.5,65,0.00,,,0.00,VWS V14.01,2013-02-16 08:55:00,
2013-02-16 03:00:00,0.1,-8.8,28.91,WNW,292,3.4,4.0,65,0.00,,,0.00,VWS V14.01,2013-02-16 09:00:00,
2013-02-16 03:05:00,0.3,-8.6,28.91,West,270,3.8,4.3,65,0.00,,,0.00,VWS V14.01,2013-02-16 09:05:00,
2013-02-16 03:10:00,0.3,-8.6,28.91,WNW,292,3.1,3.8,65,0.00,,,0.00,VWS V14.01,2013-02-16 09:10:00,
2013-02-16 03:15:00,0.1,-8.8,28.88,WSW,248,3.1,3.1,65,0.00,,,0.00,VWS V14.01,2013-02-16 09:15:00,
2013-02-16 03:20:00,0.0,-9.0,28.88,WNW,292,3.1,3.4,65,0.00,,,0.00,VWS V14.01,2013-02-16 09:20:00,
2013-02-16 03:25:00,0.0,-9.0,28.88,WNW,292,2.7,3.1,65,0.00,,,0.00,VWS V14.01,2013-02-16 09:25:00,
2013-02-16 03:30:00,0.5,-8.5,28.88,WSW,248,3.4,3.8,65,0.00,,,0.00,VWS V14.01,2013-02-16 09:30:00,
2013-02-16 03:35:00,0.0,-9.0,28.88,WNW,292,3.1,4.3,65,0.00,,,0.00,VWS V14.01,2013-02-16 09:35:00,
2013-02-16 03:40:00,1.2,-7.8,28.88,WSW,248,4.3,5.6,65,0.00,,,0.00,VWS V14.01,2013-02-16 09:40:00,
2013-02-16 03:45:00,-0.2,-9.2,28.88,WNW,292,1.6,2.7,65,0.00,,,0.00,VWS V14.01,2013-02-16 09:45:00,
2013-02-16 03:50:00,-0.4,-9.3,28.88,SW,225,2.0,2.0,65,0.00,,,0.00,VWS V14.01,2013-02-16 09:50:00,
2013-02-16 03:55:00,1.4,-7.6,28.88,West,270,3.1,3.6,65,0.00,,,0.00,VWS V14.01,2013-02-16 09:55:00,
2013-02-16 04:00:00,-0.2,-9.2,28.88,WSW,248,2.5,2.7,65,0.00,,,0.00,VWS V14.01,2013-02-16 10:00:00,
2013-02-16 04:05:00,1.4,-7.6,28.88,WSW,248,2.5,3.4,65,0.00,,,0.00,VWS V14.01,2013-02-16 10:05:00,
2013-02-16 04:10:00,0.0,-9.0,28.88,WSW,248,2.5,3.4,65,0.00,,,0.00,VWS V14.01,2013-02-16 10:10:00,
2013-02-16 04:15:00,0.1,-8.8,28.88,WSW,248,3.1,3.1,65,0.00,,,0.00,VWS V14.01,2013-02-16 10:15:00,
2013-02-16 04:20:00,0.3,-8.6,28.88,WSW,248,2.5,3.1,65,0.00,,,0.00,VWS V14.01,2013-02-16 10:20:00,
2013-02-16 04:25:00,0.3,-8.6,28.88,WSW,248,3.4,3.4,65,0.00,,,0.00,VWS V14.01,2013-02-16 10:25:00,
2013-02-16 04:30:00,0.5,-8.5,28.88,WSW,248,3.4,3.8,65,0.00,,,0.00,VWS V14.01,2013-02-16 10:30:00,
2013-02-16 04:35:00,1.0,-8.0,28.88,WSW,248,3.6,4.3,65,0.00,,,0.00,VWS V14.01,2013-02-16 10:35:00,
2013-02-16 04:40:00,1.2,-7.8,28.88,WSW,248,4.3,5.6,65,0.00,,,0.00,VWS V14.01,2013-02-16 10:40:00,
2013-02-16 04:45:00,1.4,-7.6,28.88,WSW,248,2.7,4.3,65,0.00,,,0.00,VWS V14.01,2013-02-16 10:45:00,
2013-02-16 04:50:00,1.4,-7.6,28.88,WSW,248,3.4,3.8,65,0.00,,,0.00,VWS V14.01,2013-02-16 10:50:00,
2013-02-16 04:55:00,1.4,-7.6,28.88,West,270,3.1,3.6,65,0.00,,,0.00,VWS V14.01,2013-02-16 10:55:00,
2013-02-16 05:00:00,1.4,-7.6,28.88,WSW,248,3.1,3.8,65,0.00,,,0.00,VWS V14.01,2013-02-16 11:00:00,
2013-02-16 05:05:00,1.4,-7.6,28.88,WSW,248,2.5,3.4,65,0.00,,,0.00,VWS V14.01,2013-02-16 11:05:00,
2013-02-16 05:10:00,1.6,-7.4,28.88,WSW,248,1.3,3.1,65,0.00,,,0.00,VWS V14.01,2013-02-16 11:10:00,
2013-02-16 05:15:00,1.6,-7.4,28.88,WSW,248,2.5,2.7,65,0.00,,,0.00,VWS V14.01,2013-02-16 11:15:00,
2013-02-16 05:20:00,1.4,-7.6,28.88,WSW,248,2.5,2.5,65,0.00,,,0.00,VWS V14.01,2013-02-16 11:20:00,
2013-02-16 05:25:00,1.4,-7.6,28.88,WSW,248,1.6,2.7,65,0.00,,,0.00,VWS V14.01,2013-02-16 11:25:00,
2013-02-16 05:30:00,3.6,-5.6,28.85,SW,225,3.4,3.6,65,0.00,,,0.00,VWS V14.01,2013-02-16 11:30:00,
2013-02-16 05:35:00,1.2,-7.8,28.85,WSW,248,2.0,2.7,65,0.00,,,0.00,VWS V14.01,2013-02-16 11:35:00,
2013-02-16 05:40:00,2.5,-6.6,28.85,WSW,248,3.4,3.6,65,0.00,,,0.00,VWS V14.01,2013-02-16 11:40:00,
2013-02-16 05:45:00,1.6,-7.4,28.85,WSW,248,1.3,2.7,65,0.00,,,0.00,VWS V14.01,2013-02-16 11:45:00,
2013-02-16 05:50:00,1.9,-7.1,28.85,WSW,248,2.5,4.0,65,0.00,,,0.00,VWS V14.01,2013-02-16 11:50:00,
2013-02-16 05:55:00,2.5,-6.6,28.85,WSW,248,2.2,3.1,65,0.00,,,0.00,VWS V14.01,2013-02-16 11:55:00,
2013-02-16 06:00:00,1.6,-7.4,28.85,SSW,202,2.2,3.4,65,0.00,,,0.00,VWS V14.01,2013-02-16 12:00:00,
2013-02-16 06:05:00,2.8,-6.2,28.85,SW,225,3.1,3.4,65,0.00,,,0.00,VWS V14.01,2013-02-16 12:05:00,
2013-02-16 06:10:00,3.0,-6.1,28.85,SW,225,3.1,3.8,65,0.00,,,0.00,VWS V14.01,2013-02-16 12:10:00,
2013-02-16 06:15:00,3.2,-5.9,28.85,SW,225,4.5,4.5,65,0.00,,,0.00,VWS V14.01,2013-02-16 12:15:00,
2013-02-16 06:20:00,3.7,-5.4,28.85,SW,225,2.9,4.5,65,0.00,,,0.00,VWS V14.01,2013-02-16 12:20:00,
2013-02-16 06:25:00,3.7,-5.4,28.85,SSW,202,2.7,4.3,65,0.00,,,0.00,VWS V14.01,2013-02-16 12:25:00,
2013-02-16 06:30:00,1.2,-7.8,28.85,SSW,202,1.3,2.7,65,0.00,,,0.00,VWS V14.01,2013-02-16 12:30:00,
2013-02-16 06:35:00,3.2,-5.9,28.85,SW,225,2.5,3.4,65,0.00,,,0.00,VWS V14.01,2013-02-16 12:35:00,
2013-02-16 06:40:00,1.6,-7.4,28.85,South,180,3.8,4.3,65,0.00,,,0.00,VWS V14.01,2013-02-16 12:40:00,
2013-02-16 06:45:00,2.1,-6.9,28.85,WSW,248,3.4,3.6,65,0.00,,,0.00,VWS V14.01,2013-02-16 12:45:00,
2013-02-16 06:50:00,1.9,-7.1,28.85,WSW,248,2.5,4.0,65,0.00,,,0.00,VWS V14.01,2013-02-16 12:50:00,
2013-02-16 06:55:00,1.6,-7.4,28.85,SSW,202,2.9,4.0,65,0.00,,,0.00,VWS V14.01,2013-02-16 12:55:00,
2013-02-16 07:00:00,6.6,-2.6,28.85,SSW,202,4.7,5.8,65,0.00,,,0.00,VWS V14.01,2013-02-16 13:00:00,
2013-02-16 07:05:00,1.6,-7.4,28.85,SSW,202,2.9,2.9,65,0.00,,,0.00,VWS V14.01,2013-02-16 13:05:00,
2013-02-16 07:10:00,1.6,-7.4,28.85,SSW,202,2.5,3.4,65,0.00,,,0.00,VWS V14.01,2013-02-16 13:10:00,
2013-02-16 07:15:00,1.6,-7.4,28.85,SSW,202,1.3,3.1,65,0.00,,,0.00,VWS V14.01,2013-02-16 13:15:00,
2013-02-16 07:20:00,1.2,-7.8,28.85,SSW,202,2.0,2.7,65,0.00,,,0.00,VWS V14.01,2013-02-16 13:20:00,
2013-02-16 07:25:00,12.2,2.7,28.85,South,180,4.9,6.3,65,0.00,,,0.00,VWS V14.01,2013-02-16 13:25:00,
2013-02-16 07:30:00,1.2,-7.8,28.85,SSW,202,1.3,2.7,65,0.00,,,0.00,VWS V14.01,2013-02-16 13:30:00,
2013-02-16 07:35:00,17.8,12.1,28.85,SSW,202,5.8,6.5,78,0.00,,,0.00,VWS V14.01,2013-02-16 13:35:00,
2013-02-16 07:40:00,1.6,-7.4,28.85,South,180,3.8,4.3,65,0.00,,,0.00,VWS V14.01,2013-02-16 13:40:00,
2013-02-16 07:45:00,2.8,-6.2,28.85,SSW,202,4.0,4.3,65,0.00,,,0.00,VWS V14.01,2013-02-16 13:45:00,
2013-02-16 07:50:00,20.7,14.6,28.85,SSE,158,6.5,6.9,77,0.00,,,0.00,VWS V14.01,2013-02-16 13:50:00,
2013-02-16 07:55:00,5.5,-3.7,28.85,South,180,4.5,5.6,65,0.00,,,0.00,VWS V14.01,2013-02-16 13:55:00,
2013-02-16 08:00:00,20.7,14.6,28.85,SSW,202,7.4,7.4,77,0.00,,,0.00,VWS V14.01,2013-02-16 14:00:00,
2013-02-16 08:05:00,6.6,-2.6,28.85,South,180,5.4,6.0,65,0.00,,,0.00,VWS V14.01,2013-02-16 14:05:00,
2013-02-16 08:10:00,35.4,25.6,28.85,SSW,202,5.6,7.4,67,0.00,,,0.00,VWS V14.01,2013-02-16 14:10:00,
2013-02-16 08:15:00,9.7,0.3,28.85,SSW,202,4.9,6.5,65,0.00,,,0.00,VWS V14.01,2013-02-16 14:15:00,
2013-02-16 08:20:00,12.2,2.7,28.85,South,180,6.3,6.3,65,0.00,,,0.00,VWS V14.01,2013-02-16 14:20:00,
2013-02-16 08:25:00,38.5,26.2,28.85,SSW,202,7.4,8.5,61,0.00,,,0.00,VWS V14.01,2013-02-16 14:25:00,
2013-02-16 08:30:00,16.9,11.8,28.85,SSW,202,5.8,6.5,80,0.00,,,0.00,VWS V14.01,2013-02-16 14:30:00,
2013-02-16 08:35:00,43.2,26.7,28.85,SSW,202,5.4,7.8,52,0.00,,,0.00,VWS V14.01,2013-02-16 14:35:00,
2013-02-16 08:40:00,18.7,12.7,28.85,SSW,202,4.3,6.5,77,0.00,,,0.00,VWS V14.01,2013-02-16 14:40:00,
2013-02-16 08:45:00,45.9,26.3,28.82,SSW,202,6.0,8.5,46,0.00,,,0.00,VWS V14.01,2013-02-16 14:45:00,
2013-02-16 08:50:00,20.7,14.6,28.85,SSE,158,6.5,6.9,77,0.00,,,0.00,VWS V14.01,2013-02-16 14:50:00,
2013-02-16 08:55:00,20.7,14.6,28.85,SSE,158,5.4,6.5,77,0.00,,,0.00,VWS V14.01,2013-02-16 14:55:00,
2013-02-16 09:00:00,20.7,14.6,28.85,SSW,202,7.4,7.4,77,0.00,,,0.00,VWS V14.01,2013-02-16 15:00:00,
2013-02-16 09:05:00,20.7,14.6,28.85,South,180,6.5,7.6,77,0.00,,,0.00,VWS V14.01,2013-02-16 15:05:00,
2013-02-16 09:10:00,52.5,28.9,28.82,SSW,202,6.9,9.8,40,0.00,,,0.00,VWS V14.01,2013-02-16 15:10:00,
2013-02-16 09:15:00,36.1,25.5,28.85,SSW,202,4.3,7.6,65,0.00,,,0.00,VWS V14.01,2013-02-16 15:15:00,
2013-02-16 09:20:00,54.5,28.8,28.82,WSW,248,3.8,7.6,37,0.00,,,0.00,VWS V14.01,2013-02-16 15:20:00,
2013-02-16 09:25:00,38.5,26.2,28.85,SSW,202,7.4,8.5,61,0.00,,,0.00,VWS V14.01,2013-02-16 15:25:00,
2013-02-16 09:30:00,41.7,26.8,28.85,SSW,202,7.4,8.5,55,0.00,,,0.00,VWS V14.01,2013-02-16 15:30:00,
2013-02-16 09:35:00,57.9,29.0,28.82,SW,225,5.6,8.7,33,0.00,,,0.00,VWS V14.01,2013-02-16 15:35:00,
2013-02-16 09:40:00,44.8,26.8,28.85,SSW,202,4.7,7.8,49,0.00,,,0.00,VWS V14.01,2013-02-16 15:40:00,
2013-02-16 09:45:00,61.0,27.7,28.82,SW,225,9.0,9.0,28,0.00,,,0.00,VWS V14.01,2013-02-16 15:45:00,
2013-02-16 09:50:00,47.3,24.8,28.82,SSW,202,7.4,9.2,41,0.00,,,0.00,VWS V14.01,2013-02-16 15:50:00,
2013-02-16 09:55:00,61.3,26.2,28.82,SSW,202,8.7,8.7,26,0.00,,,0.00,VWS V14.01,2013-02-16 15:55:00,
2013-02-16 10:00:00,48.6,25.4,28.82,SSW,202,5.6,9.8,40,0.00,,,0.00,VWS V14.01,2013-02-16 16:00:00,
2013-02-16 10:05:00,50.7,27.3,28.82,SSW,202,5.8,9.4,40,0.00,,,0.00,VWS V14.01,2013-02-16 16:05:00,
2013-02-16 10:10:00,61.7,25.5,28.82,WSW,248,7.8,7.8,25,0.00,,,0.00,VWS V14.01,2013-02-16 16:10:00,
2013-02-16 10:15:00,53.6,28.6,28.82,SSW,202,7.6,9.8,38,0.00,,,0.00,VWS V14.01,2013-02-16 16:15:00,
2013-02-16 10:20:00,61.9,25.7,28.82,SSW,202,4.9,6.3,25,0.00,,,0.00,VWS V14.01,2013-02-16 16:20:00,
2013-02-16 10:25:00,56.5,29.9,28.82,SSW,202,10.1,10.1,36,0.00,,,0.00,VWS V14.01,2013-02-16 16:25:00,
2013-02-16 10:30:00,57.4,30.0,28.82,SSW,202,4.9,10.1,35,0.00,,,0.00,VWS V14.01,2013-02-16 16:30:00,
2013-02-16 10:35:00,60.6,24.6,28.79,SW,225,8.7,8.7,25,0.00,,,0.00,VWS V14.01,2013-02-16 16:35:00,
2013-02-16 10:40:00,59.9,28.4,28.82,SW,225,4.9,8.5,30,0.00,,,0.00,VWS V14.01,2013-02-16 16:40:00,
2013-02-16 10:45:00,61.0,27.7,28.82,SW,225,9.0,9.0,28,0.00,,,0.00,VWS V14.01,2013-02-16 16:45:00,
2013-02-16 10:50:00,61.2,26.9,28.82,SSW,202,8.7,9.0,27,0.00,,,0.00,VWS V14.01,2013-02-16 16:50:00,
2013-02-16 10:55:00,63.0,25.6,28.79,SSW,202,10.5,10.5,24,0.00,,,0.00,VWS V14.01,2013-02-16 16:55:00,
2013-02-16 11:00:00,61.9,26.6,28.82,SW,225,7.4,9.6,26,0.00,,,0.00,VWS V14.01,2013-02-16 17:00:00,
2013-02-16 11:05:00,61.9,24.7,28.79,SW,225,3.6,8.5,24,0.00,,,0.00,VWS V14.01,2013-02-16 17:05:00,
2013-02-16 11:10:00,61.7,25.5,28.82,WSW,248,7.8,7.8,25,0.00,,,0.00,VWS V14.01,2013-02-16 17:10:00,
2013-02-16 11:15:00,61.2,25.1,28.82,WSW,248,3.4,8.1,25,0.00,,,0.00,VWS V14.01,2013-02-16 17:15:00,
2013-02-16 11:20:00,63.1,25.8,28.79,SW,225,2.5,7.4,24,0.00,,,0.00,VWS V14.01,2013-02-16 17:20:00,
2013-02-16 11:25:00,61.5,25.4,28.82,SSW,202,7.4,9.4,25,0.00,,,0.00,VWS V14.01,2013-02-16 17:25:00,
2013-02-16 11:30:00,63.0,25.6,28.79,WSW,248,4.3,7.4,24,0.00,,,0.00,VWS V14.01,2013-02-16 17:30:00,
2013-02-16 11:35:00,60.6,24.6,28.79,SW,225,8.7,8.7,25,0.00,,,0.00,VWS V14.01,2013-02-16 17:35:00,
2013-02-16 11:40:00,60.6,24.6,28.79,SSE,158,3.4,8.7,25,0.00,,,0.00,VWS V14.01,2013-02-16 17:40:00,
2013-02-16 11:45:00,62.6,24.3,28.76,SSW,202,6.7,8.7,23,0.00,,,0.00,VWS V14.01,2013-02-16 17:45:00,
2013-02-16 11:50:00,61.9,24.7,28.79,SSW,202,6.5,8.5,24,0.00,,,0.00,VWS V14.01,2013-02-16 17:50:00,
2013-02-16 11:55:00,60.1,23.2,28.76,SW,225,6.5,8.7,24,0.00,,,0.00,VWS V14.01,2013-02-16 17:55:00,
2013-02-16 12:00:00,62.6,25.3,28.79,SSW,202,4.5,10.5,24,0.00,,,0.00,VWS V14.01,2013-02-16 18:00:00,
2013-02-16 12:05:00,61.0,24.0,28.76,WSW,248,8.7,10.1,24,0.00,,,0.00,VWS V14.01,2013-02-16 18:05:00,
2013-02-16 12:10:00,62.8,25.5,28.79,SW,225,5.6,6.3,24,0.00,,,0.00,VWS V14.01,2013-02-16 18:10:00,
2013-02-16 12:15:00,63.0,25.6,28.79,SW,225,6.3,7.8,24,0.00,,,0.00,VWS V14.01,2013-02-16 18:15:00,
2013-02-16 12:20:00,61.3,24.3,28.76,SSW,202,4.0,8.5,24,0.00,,,0.00,VWS V14.01,2013-02-16 18:20:00,
2013-02-16 12:25:00,63.0,25.6,28.79,SSW,202,5.8,7.4,24,0.00,,,0.00,VWS V14.01,2013-02-16 18:25:00,
2013-02-16 12:30:00,61.0,24.0,28.76,WSW,248,9.0,11.4,24,0.00,,,0.00,VWS V14.01,2013-02-16 18:30:00,
2013-02-16 12:35:00,64.2,26.7,28.79,WSW,248,3.4,7.6,24,0.00,,,0.00,VWS V14.01,2013-02-16 18:35:00,
2013-02-16 12:40:00,59.9,23.0,28.76,SSW,202,2.5,7.4,24,0.00,,,0.00,VWS V14.01,2013-02-16 18:40:00,
2013-02-16 12:45:00,62.6,24.3,28.76,SSW,202,6.7,8.7,23,0.00,,,0.00,VWS V14.01,2013-02-16 18:45:00,
2013-02-16 12:50:00,57.0,21.6,28.76,SSW,202,3.6,9.0,25,0.00,,,0.00,VWS V14.01,2013-02-16 18:50:00,
2013-02-16 12:55:00,60.1,23.2,28.76,SW,225,6.5,8.7,24,0.00,,,0.00,VWS V14.01,2013-02-16 18:55:00,
2013-02-16 13:00:00,60.1,23.2,28.76,SSW,202,6.0,8.5,24,0.00,,,0.00,VWS V14.01,2013-02-16 19:00:00,
2013-02-16 13:05:00,53.8,18.8,28.76,WNW,292,5.8,6.5,25,0.00,,,0.00,VWS V14.01,2013-02-16 19:05:00,
2013-02-16 13:10:00,61.5,24.4,28.76,WSW,248,11.4,11.4,24,0.00,,,0.00,VWS V14.01,2013-02-16 19:10:00,
2013-02-16 13:15:00,52.3,18.5,28.73,SW,225,7.6,9.6,26,0.00,,,0.00,VWS V14.01,2013-02-16 19:15:00,
2013-02-16 13:20:00,61.3,24.3,28.76,SSW,202,4.0,8.5,24,0.00,,,0.00,VWS V14.01,2013-02-16 19:20:00,
2013-02-16 13:25:00,61.3,24.3,28.76,West,270,4.0,10.3,24,0.00,,,0.00,VWS V14.01,2013-02-16 19:25:00,
2013-02-16 13:30:00,51.3,17.6,28.73,SW,225,6.3,7.4,26,0.00,,,0.00,VWS V14.01,2013-02-16 19:30:00,
2013-02-16 13:35:00,60.8,23.8,28.76,WSW,248,6.3,10.1,24,0.00,,,0.00,VWS V14.01,2013-02-16 19:35:00,
2013-02-16 13:40:00,49.6,17.0,28.73,SE,135,6.0,7.2,27,0.00,,,0.00,VWS V14.01,2013-02-16 19:40:00,
2013-02-16 13:45:00,58.5,21.8,28.76,SW,225,7.6,7.8,24,0.00,,,0.00,VWS V14.01,2013-02-16 19:45:00,
2013-02-16 13:50:00,48.6,16.1,28.73,WNW,292,4.9,10.7,27,0.00,,,0.00,VWS V14.01,2013-02-16 19:50:00,
2013-02-16 13:55:00,55.2,20.0,28.76,WNW,292,3.8,9.2,25,0.00,,,0.00,VWS V14.01,2013-02-16 19:55:00,
2013-02-16 14:00:00,54.3,19.3,28.76,WSW,248,3.4,6.3,25,0.00,,,0.00,VWS V14.01,2013-02-16 20:00:00,
2013-02-16 14:05:00,46.2,14.9,28.73,SSE,158,4.9,7.8,28,0.00,,,0.00,VWS V14.01,2013-02-16 20:05:00,
2013-02-16 14:10:00,53.1,19.1,28.76,WNW,292,1.1,8.5,26,0.00,,,0.00,VWS V14.01,2013-02-16 20:10:00,
2013-02-16 14:15:00,45.3,14.1,28.73,WSW,248,2.5,7.2,28,0.00,,,0.00,VWS V14.01,2013-02-16 20:15:00,
2013-02-16 14:20:00,51.8,18.0,28.73,WSW,248,4.3,7.8,26,0.00,,,0.00,VWS V14.01,2013-02-16 20:20:00,
2013-02-16 14:25:00,45.5,14.3,28.73,SSW,202,4.9,7.2,28,0.00,,,0.00,VWS V14.01,2013-02-16 20:25:00,
2013-02-16 14:30:00,51.3,17.6,28.73,SW,225,6.3,7.4,26,0.00,,,0.00,VWS V14.01,2013-02-16 20:30:00,
2013-02-16 14:35:00,45.7,14.5,28.70,SSW,202,5.8,7.2,28,0.00,,,0.00,VWS V14.01,2013-02-16 20:35:00,
2013-02-16 14:40:00,49.6,17.0,28.73,SE,135,6.0,7.2,27,0.00,,,0.00,VWS V14.01,2013-02-16 20:40:00,
2013-02-16 14:45:00,48.7,15.4,28.73,SSW,202,4.7,7.4,26,0.00,,,0.00,VWS V14.01,2013-02-16 20:45:00,
2013-02-16 14:50:00,41.0,11.2,28.73,SSW,202,7.4,10.3,29,0.00,,,0.00,VWS V14.01,2013-02-16 20:50:00,
2013-02-16 14:55:00,48.7,16.3,28.73,WSW,248,7.8,7.8,27,0.00,,,0.00,VWS V14.01,2013-02-16 20:55:00,
2013-02-16 15:00:00,38.8,10.1,28.73,SSW,202,5.4,5.4,30,0.00,,,0.00,VWS V14.01,2013-02-16 21:00:00,
2013-02-16 15:05:00,46.2,14.9,28.73,SSE,158,4.9,7.8,28,0.00,,,0.00,VWS V14.01,2013-02-16 21:05:00,
2013-02-16 15:10:00,37.2,9.4,28.73,WSW,248,4.9,7.4,31,0.00,,,0.00,VWS V14.01,2013-02-16 21:10:00,
2013-02-16 15:15:00,45.3,14.1,28.73,WSW,248,2.5,7.2,28,0.00,,,0.00,VWS V14.01,2013-02-16 21:15:00,
2013-02-16 15:20:00,45.9,14.6,28.73,SSW,202,2.5,5.8,28,0.00,,,0.00,VWS V14.01,2013-02-16 21:20:00,
2013-02-16 15:25:00,35.8,9.5,28.73,SW,225,6.5,8.1,33,0.00,,,0.00,VWS V14.01,2013-02-16 21:25:00,
2013-02-16 15:30:00,45.1,14.0,28.70,SSW,202,6.0,7.4,28,0.00,,,0.00,VWS V14.01,2013-02-16 21:30:00,
2013-02-16 15:35:00,34.0,9.2,28.73,SSW,202,5.8,5.8,35,0.00,,,0.00,VWS V14.01,2013-02-16 21:35:00,
2013-02-16 15:40:00,44.8,13.7,28.70,SSW,202,5.8,8.1,28,0.00,,,0.00,VWS V14.01,2013-02-16 21:40:00,
2013-02-16 15:45:00,43.2,13.1,28.73,SW,225,5.4,6.3,29,0.00,,,0.00,VWS V14.01,2013-02-16 21:45:00,
2013-02-16 15:50:00,32.7,11.1,28.70,SSW,202,3.4,4.9,40,0.00,,,0.00,VWS V14.01,2013-02-16 21:50:00,
2013-02-16 15:55:00,39.7,10.9,28.73,WNW,292,3.6,8.7,30,0.00,,,0.00,VWS V14.01,2013-02-16 21:55:00,
2013-02-16 16:00:00,38.8,10.1,28.73,SSW,202,5.4,5.4,30,0.00,,,0.00,VWS V14.01,2013-02-16 22:00:00,
2013-02-16 16:05:00,38.1,10.2,28.73,South,180,3.8,5.4,31,0.00,,,0.00,VWS V14.01,2013-02-16 22:05:00,
2013-02-16 16:10:00,29.3,8.5,28.73,SSW,202,2.9,4.3,41,0.00,,,0.00,VWS V14.01,2013-02-16 22:10:00,
2013-02-16 16:15:00,36.3,9.3,28.73,SSW,202,4.0,5.6,32,0.00,,,0.00,VWS V14.01,2013-02-16 22:15:00,
2013-02-16 16:20:00,36.1,9.1,28.73,SSW,202,8.1,8.1,32,0.00,,,0.00,VWS V14.01,2013-02-16 22:20:00,
2013-02-16 16:25:00,28.9,9.3,28.73,SSW,202,2.2,3.1,43,0.00,,,0.00,VWS V14.01,2013-02-16 22:25:00,
2013-02-16 16:30:00,34.9,9.4,28.73,SSW,202,4.3,6.5,34,0.00,,,0.00,VWS V14.01,2013-02-16 22:30:00,
2013-02-16 16:35:00,27.9,8.3,28.73,SW,225,2.7,3.1,43,0.00,,,0.00,VWS V14.01,2013-02-16 22:35:00,
2013-02-16 16:40:00,33.8,9.7,28.73,SSW,202,5.8,7.2,36,0.00,,,0.00,VWS V14.01,2013-02-16 22:40:00,
2013-02-16 16:45:00,25.0,5.7,28.73,SSW,202,1.6,2.9,43,0.00,,,0.00,VWS V14.01,2013-02-16 22:45:00,
2013-02-16 16:50:00,32.7,11.1,28.70,SSW,202,3.4,4.9,40,0.00,,,0.00,VWS V14.01,2013-02-16 22:50:00,
2013-02-16 16:55:00,31.1,9.6,28.70,SSW,202,2.9,3.4,40,0.00,,,0.00,VWS V14.01,2013-02-16 22:55:00,
2013-02-16 17:00:00,20.7,2.2,28.73,South,180,0.9,1.6,44,0.00,,,0.00,VWS V14.01,2013-02-16 23:00:00,
2013-02-16 17:05:00,30.4,9.5,28.73,SSW,202,4.3,6.0,41,0.00,,,0.00,VWS V14.01,2013-02-16 23:05:00,
2013-02-16 17:10:00,18.5,0.7,28.73,ESE,112,3.1,3.1,45,0.00,,,0.00,VWS V14.01,2013-02-16 23:10:00,
2013-02-16 17:15:00,28.8,8.0,28.73,SSW,202,2.5,3.6,41,0.00,,,0.00,VWS V14.01,2013-02-16 23:15:00,
2013-02-16 17:20:00,29.1,8.9,28.73,SSW,202,3.1,4.0,42,0.00,,,0.00,VWS V14.01,2013-02-16 23:20:00,
2013-02-16 17:25:00,17.6,2.6,28.73,ESE,112,2.9,3.6,51,0.00,,,0.00,VWS V14.01,2013-02-16 23:25:00,
2013-02-16 17:30:00,28.4,8.8,28.73,SW,225,2.9,2.9,43,0.00,,,0.00,VWS V14.01,2013-02-16 23:30:00,
2013-02-16 17:35:00,27.9,8.3,28.73,SW,225,2.7,3.1,43,0.00,,,0.00,VWS V14.01,2013-02-16 23:35:00,
2013-02-16 17:40:00,26.8,7.3,28.73,SSW,202,2.9,3.8,43,0.00,,,0.00,VWS V14.01,2013-02-16 23:40:00,
2013-02-16 17:45:00,20.3,7.9,28.73,ESE,112,4.9,6.5,58,0.00,,,0.00,VWS V14.01,2013-02-16 23:45:00,
2013-02-16 17:50:00,23.5,4.3,28.73,SSW,202,1.1,2.0,43,0.00,,,0.00,VWS V14.01,2013-02-16 23:50:00,
2013-02-16 17:55:00,22.1,3.5,28.73,SSW,202,0.0,1.3,44,0.00,,,0.00,VWS V14.01,2013-02-16 23:55:00,
2013-02-16 18:00:00,20.7,2.2,28.73,South,180,0.9,1.6,44,0.00,,,0.00,VWS V14.01,2013-02-17 00:00:00,
2013-02-16 18:05:00,19.8,1.4,28.73,SSE,158,0.0,0.9,44,0.00,,,0.00,VWS V14.01,2013-02-17 00:05:00,
2013-02-16 18:10:00,21.0,8.9,28.73,ESE,112,5.6,5.8,59,0.00,,,0.00,VWS V14.01,2013-02-17 00:10:00,
2013-02-16 18:15:00,17.8,0.5,28.73,ESE,112,2.9,3.8,46,0.00,,,0.00,VWS V14.01,2013-02-17 00:15:00,
2013-02-16 18:20:00,21.2,9.5,28.73,ESE,112,5.4,6.3,60,0.00,,,0.00,VWS V14.01,2013-02-17 00:20:00,
2013-02-16 18:25:00,17.6,2.6,28.73,ESE,112,2.9,3.6,51,0.00,,,0.00,VWS V14.01,2013-02-17 00:25:00,
2013-02-16 18:30:00,21.9,11.3,28.73,ESE,112,4.0,6.0,63,0.00,,,0.00,VWS V14.01,2013-02-17 00:30:00,
2013-02-16 18:35:00,19.2,6.1,28.73,ESE,112,4.0,6.5,56,0.00,,,0.00,VWS V14.01,2013-02-17 00:35:00,
2013-02-16 18:40:00,19.6,6.4,28.73,ESE,112,6.3,8.5,56,0.00,,,0.00,VWS V14.01,2013-02-17 00:40:00,
2013-02-16 18:45:00,21.4,11.1,28.73,ESE,112,6.5,6.5,64,0.00,,,0.00,VWS V14.01,2013-02-17 00:45:00,
2013-02-16 18:50:00,21.0,8.6,28.73,ESE,112,4.3,6.3,58,0.00,,,0.00,VWS V14.01,2013-02-17 00:50:00,
2013-02-16 18:55:00,20.8,10.6,28.73,ESE,112,4.0,5.8,64,0.00,,,0.00,VWS V14.01,2013-02-17 00:55:00,
2013-02-16 19:00:00,21.4,9.3,28.73,ESE,112,6.3,8.5,59,0.00,,,0.00,VWS V14.01,2013-02-17 01:00:00,
2013-02-16 19:05:00,20.3,10.4,28.73,ESE,112,6.0,6.5,65,0.00,,,0.00,VWS V14.01,2013-02-17 01:05:00,
2013-02-16 19:10:00,21.0,8.9,28.73,ESE,112,5.6,5.8,59,0.00,,,0.00,VWS V14.01,2013-02-17 01:10:00,
2013-02-16 19:15:00,20.8,8.8,28.73,ESE,112,3.6,6.0,59,0.00,,,0.00,VWS V14.01,2013-02-17 01:15:00,
2013-02-16 19:20:00,19.4,9.9,28.73,ESE,112,5.6,5.8,66,0.00,,,0.00,VWS V14.01,2013-02-17 01:20:00,
2013-02-16 19:25:00,21.7,11.1,28.73,ESE,112,4.0,6.5,63,0.00,,,0.00,VWS V14.01,2013-02-17 01:25:00,
2013-02-16 19:30:00,18.9,9.7,28.73,ESE,112,5.4,7.4,67,0.00,,,0.00,VWS V14.01,2013-02-17 01:30:00,
2013-02-16 19:35:00,21.6,10.6,28.73,ESE,112,5.4,5.8,62,0.00,,,0.00,VWS V14.01,2013-02-17 01:35:00,
2013-02-16 19:40:00,21.6,10.9,28.73,ESE,112,3.8,6.5,63,0.00,,,0.00,VWS V14.01,2013-02-17 01:40:00,
2013-02-16 19:45:00,21.4,11.1,28.73,ESE,112,6.5,6.5,64,0.00,,,0.00,VWS V14.01,2013-02-17 01:45:00,
2013-02-16 19:50:00,21.0,10.8,28.73,SE,135,4.0,6.5,64,0.00,,,0.00,VWS V14.01,2013-02-17 01:50:00,
2013-02-16 20:00:00,20.8,11.3,28.73,SE,135,4.9,6.3,66,0.00,,,0.00,VWS V14.01,2013-02-17 02:00:00,
2013-02-16 20:10:00,20.3,11.1,28.73,ESE,112,6.5,6.5,67,0.00,,,0.00,VWS V14.01,2013-02-17 02:10:00,
2013-02-16 20:20:00,19.4,9.9,28.73,ESE,112,5.6,5.8,66,0.00,,,0.00,VWS V14.01,2013-02-17 02:20:00,
2013-02-16 20:30:00,18.9,9.7,28.73,ESE,112,5.4,7.4,67,0.00,,,0.00,VWS V14.01,2013-02-17 02:30:00,
2013-02-16 20:35:00,19.4,11.2,28.73,ESE,112,6.3,7.8,70,0.00,,,0.00,VWS V14.01,2013-02-17 02:35:00,
2013-02-16 20:40:00,19.6,11.7,28.73,ESE,112,6.5,8.1,71,0.00,,,0.00,VWS V14.01,2013-02-17 02:40:00,
2013-02-16 21:33:00,17.8,10.6,28.70,ESE,112,5.6,8.1,73,0.00,,,0.00,VWS V14.01,2013-02-17 03:33:00,